Time,TemperatureF,DewpointF,PressureIn,WindDirection,WindDirectionDegrees,WindSpeedMPH,WindSpeedGustMPH,Humidity,HourlyPrecipIn,Conditions,Clouds,dailyrainin,SoftwareType,DateUTC
2013-03-05 00:02:00,-999.0,-99.9,30.16,NNE,28,0.0,1.0,-999,-99.99,,,-99.99,,2013-03-05 05:02:00,
2013-03-05 00:12:00,21.0,-99.9,30.16,North,5,1.0,1.0,-999,-99.99,,,-99.99,,2013-03-05 05:12:00,
2013-03-05 00:23:00,-999.0,-99.9,30.16,North,11,2.0,2.0,-999,-99.99,,,-99.99,,2013-03-05 05:23:00,
2013-03-05 00:32:00,-999.0,-99.9,30.16,North,10,2.0,3.0,-999,-99.99,,,-99.99,,2013-03-05 05:32:00,
2013-03-05 00:42:00,-999.0,-99.9,30.16,North,355,1.0,2.0,-999,-99.99,,,-99.99,,2013-03-05 05:42:00,
2013-03-05 00:52:00,20.0,-99.9,30.16,NNW,348,1.0,2.0,-999,-99.99,,,-99.99,,2013-03-05 05:52:00,
2013-03-05 01:02:00,-999.0,-99.9,30.17,NW,320,1.0,2.0,-999,-99.99,,,-99.99,,2013-03-05 06:02:00,
2013-03-05 01:11:00,19.0,-99.9,30.17,NW,326,1.0,3.0,-999,-99.99,,,-99.99,,2013-03-05 06:11:00,
2013-03-05 01:22:00,-999.0,-99.9,30.17,North,6,3.0,4.0,-999,-99.99,,,-99.99,,2013-03-05 06:22:00,
2013-03-05 01:32:00,-999.0,-99.9,30.17,North,357,2.0,3.0,-999,-99.99,,,-99.99,,2013-03-05 06:32:00,
2013-03-05 01:42:00,18.0,-99.9,30.17,North,5,2.0,5.0,-999,-99.99,,,-99.99,,2013-03-05 06:42:00,
2013-03-05 01:52:00,-999.0,-99.9,30.17,NNE,22,3.0,4.0,-999,-99.99,,,-99.99,,2013-03-05 06:52:00,
2013-03-05 02:01:00,-999.0,-99.9,30.18,NNE,23,2.0,6.0,-999,-99.99,,,-99.99,,2013-03-05 07:01:00,
2013-03-05 02:11:00,-999.0,-99.9,30.18,North,2,2.0,5.0,-999,-99.99,,,-99.99,,2013-03-05 07:11:00,
2013-03-05 02:32:00,-999.0,-99.9,30.18,NNE,33,2.0,4.0,-999,-99.99,,,-99.99,,2013-03-05 07:32:00,
2013-03-05 02:42:00,-999.0,-99.9,30.18,NE,55,1.0,5.0,-999,-99.99,,,-99.99,,2013-03-05 07:42:00,
2013-03-05 02:52:00,15.0,-99.9,30.18,ENE,75,1.0,2.0,-999,-99.99,,,-99.99,,2013-03-05 07:52:00,
2013-03-05 03:02:00,-999.0,-99.9,30.18,NE,40,2.0,4.0,-999,-99.99,,,-99.99,,2013-03-05 08:02:00,
2013-03-05 03:11:00,15.0,-99.9,30.18,ENE,76,0.0,2.0,-999,-99.99,,,-99.99,,2013-03-05 08:11:00,
2013-03-05 03:21:00,-999.0,-99.9,30.19,NE,43,1.0,4.0,-999,-99.99,,,-99.99,,2013-03-05 08:21:00,
2013-03-05 03:32:00,-999.0,-99.9,30.19,North,9,3.0,5.0,-999,-99.99,,,-99.99,,2013-03-05 08:32:00,
2013-03-05 03:42:00,-999.0,-99.9,30.19,NNE,17,8.0,9.0,-999,-99.99,,,-99.99,,2013-03-05 08:42:00,
2013-03-05 03:52:00,-999.0,-99.9,30.19,NNE,23,7.0,8.0,-999,-99.99,,,-99.99,,2013-03-05 08:52:00,
2013-03-05 04:02:00,-999.0,-99.9,30.19,NNE,20,6.0,7.0,-999,-99.99,,,-99.99,,2013-03-05 09:02:00,
2013-03-05 04:11:00,-999.0,-99.9,30.19,NNE,21,6.0,6.0,-999,-99.99,,,-99.99,,2013-03-05 09:11:00,
2013-03-05 04:22:00,18.0,-99.9,30.19,NNE,33,6.0,7.0,-999,-99.99,,,-99.99,,2013-03-05 09:22:00,
2013-03-05 04:32:00,-999.0,-99.9,30.19,NE,47,5.0,6.0,-999,-99.99,,,-99.99,,2013-03-05 09:32:00,
2013-03-05 04:43:00,15.0,-99.9,30.19,NNE,22,4.0,6.0,-999,-99.99,,,-99.99,,2013-03-05 09:43:00,
2013-03-05 04:52:00,-999.0,-99.9,30.18,NNW,339,2.0,3.0,-999,-99.99,,,-99.99,,2013-03-05 09:52:00,
2013-03-05 05:02:00,-999.0,-99.9,30.18,NNE,22,1.0,4.0,-999,-99.99,,,-99.99,,2013-03-05 10:02:00,
2013-03-05 05:11:00,-999.0,-99.9,30.18,West,271,2.0,2.0,-999,-99.99,,,-99.99,,2013-03-05 10:11:00,
2013-03-05 05:22:00,-999.0,-99.9,30.18,WNW,291,1.0,2.0,-999,-99.99,,,-99.99,,2013-03-05 10:22:00,
2013-03-05 05:32:00,-999.0,-99.9,30.18,WNW,284,1.0,2.0,-999,-99.99,,,-99.99,,2013-03-05 10:32:00,
2013-03-05 05:42:00,-999.0,-99.9,30.18,WNW,283,1.0,1.0,-999,-99.99,,,-99.99,,2013-03-05 10:42:00,
2013-03-05 05:52:00,13.0,-99.9,30.17,NW,324,1.0,1.0,-999,-99.99,,,-99.99,,2013-03-05 10:52:00,
2013-03-05 06:02:00,-999.0,-99.9,30.17,North,2,1.0,2.0,-999,-99.99,,,-99.99,,2013-03-05 11:02:00,
2013-03-05 06:12:00,13.0,-99.9,30.17,North,5,1.0,2.0,-999,-99.99,,,-99.99,,2013-03-05 11:12:00,
2013-03-05 06:22:00,-999.0,-99.9,30.17,North,350,2.0,2.0,-999,-99.99,,,-99.99,,2013-03-05 11:22:00,
2013-03-05 06:32:00,-999.0,-99.9,30.17,NNW,327,1.0,2.0,-999,-99.99,,,-99.99,,2013-03-05 11:32:00,
2013-03-05 06:42:00,12.0,-99.9,30.17,NNW,345,0.0,2.0,-999,-99.99,,,-99.99,,2013-03-05 11:42:00,
2013-03-05 07:03:00,-999.0,-99.9,30.17,NNW,342,1.0,2.0,-999,-99.99,,,-99.99,,2013-03-05 12:03:00,
2013-03-05 07:22:00,12.0,-99.9,30.17,WNW,293,0.0,2.0,-999,-99.99,,,-99.99,,2013-03-05 12:22:00,
2013-03-05 07:32:00,-999.0,-99.9,30.17,NW,307,0.0,2.0,-999,-99.99,,,-99.99,,2013-03-05 12:32:00,
2013-03-05 07:53:00,12.0,-99.9,30.18,WSW,258,1.0,1.0,-999,-99.99,,,-99.99,,2013-03-05 12:53:00,
2013-03-05 08:02:00,-999.0,-99.9,30.17,West,265,2.0,2.0,-999,-99.99,,,-99.99,,2013-03-05 13:02:00,
2013-03-05 08:12:00,13.0,-99.9,30.17,WNW,296,1.0,2.0,-999,-99.99,,,-99.99,,2013-03-05 13:12:00,
2013-03-05 08:22:00,-999.0,-99.9,30.18,WNW,290,1.0,2.0,-999,-99.99,,,-99.99,,2013-03-05 13:22:00,
2013-03-05 08:52:00,22.0,-99.9,30.17,North,-999,-999.0,-999.0,-999,-99.99,,,-99.99,,2013-03-05 13:52:00,
2013-03-05 09:03:00,-999.0,-99.9,30.17,East,81,1.0,2.0,-999,-99.99,,,-99.99,,2013-03-05 14:03:00,
2013-03-05 09:11:00,-999.0,-99.9,30.17,ESE,108,2.0,3.0,-999,-99.99,,,-99.99,,2013-03-05 14:11:00,
2013-03-05 09:22:00,14.0,-99.9,30.17,ESE,111,2.0,3.0,-999,-99.99,,,-99.99,,2013-03-05 14:22:00,
2013-03-05 09:32:00,-999.0,-99.9,30.17,ESE,107,3.0,4.0,-999,-99.99,,,-99.99,,2013-03-05 14:32:00,
2013-03-05 09:42:00,14.0,-99.9,30.16,East,101,4.0,4.0,-999,-99.99,,,-99.99,,2013-03-05 14:42:00,
2013-03-05 09:52:00,-999.0,-99.9,30.16,ESE,119,5.0,6.0,-999,-99.99,,,-99.99,,2013-03-05 14:52:00,
2013-03-05 10:02:00,-999.0,-99.9,30.16,SE,124,4.0,6.0,-999,-99.99,,,-99.99,,2013-03-05 15:02:00,
2013-03-05 10:11:00,-999.0,-99.9,30.16,SE,124,6.0,7.0,-999,-99.99,,,-99.99,,2013-03-05 15:11:00,
2013-03-05 10:22:00,-999.0,-99.9,30.16,ESE,123,6.0,7.0,-999,-99.99,,,-99.99,,2013-03-05 15:22:00,
2013-03-05 10:32:00,-999.0,-99.9,30.15,ESE,121,5.0,7.0,-999,-99.99,,,-99.99,,2013-03-05 15:32:00,
2013-03-05 10:42:00,-999.0,-99.9,30.14,ESE,122,7.0,9.0,-999,-99.99,,,-99.99,,2013-03-05 15:42:00,
2013-03-05 10:52:00,16.0,-99.9,30.14,ESE,119,8.0,10.0,-999,-99.99,,,-99.99,,2013-03-05 15:52:00,
2013-03-05 11:02:00,-999.0,-99.9,30.14,ESE,119,8.0,10.0,-999,-99.99,,,-99.99,,2013-03-05 16:02:00,
2013-03-05 11:11:00,18.0,-99.9,30.14,ESE,123,7.0,11.0,-999,-99.99,,,-99.99,,2013-03-05 16:11:00,
2013-03-05 11:22:00,-999.0,-99.9,30.14,ESE,122,8.0,11.0,-999,-99.99,,,-99.99,,2013-03-05 16:22:00,
2013-03-05 11:32:00,-999.0,-99.9,30.14,ESE,114,11.0,13.0,-999,-99.99,,,-99.99,,2013-03-05 16:32:00,
2013-03-05 11:42:00,-999.0,-99.9,30.13,ESE,117,9.0,10.0,-999,-99.99,,,-99.99,,2013-03-05 16:42:00,
2013-03-05 11:52:00,-999.0,-99.9,30.13,ESE,120,7.0,10.0,-999,-99.99,,,-99.99,,2013-03-05 16:52:00,
2013-03-05 12:01:00,-999.0,-99.9,30.13,ESE,113,9.0,12.0,-999,-99.99,,,-99.99,,2013-03-05 17:01:00,
2013-03-05 12:11:00,-999.0,-99.9,30.13,ESE,115,11.0,13.0,-999,-99.99,,,-99.99,,2013-03-05 17:11:00,
2013-03-05 12:22:00,20.0,-99.9,30.13,ESE,117,9.0,12.0,-999,-99.99,,,-99.99,,2013-03-05 17:22:00,
2013-03-05 12:32:00,-999.0,-99.9,30.12,ESE,118,9.0,11.0,-999,-99.99,,,-99.99,,2013-03-05 17:32:00,
2013-03-05 12:42:00,20.0,-99.9,30.12,ESE,118,9.0,11.0,-999,-99.99,,,-99.99,,2013-03-05 17:42:00,
2013-03-05 12:53:00,-999.0,-99.9,30.12,ESE,118,10.0,13.0,-999,-99.99,,,-99.99,,2013-03-05 17:53:00,
2013-03-05 13:02:00,-999.0,-99.9,30.11,ESE,119,10.0,13.0,-999,-99.99,,,-99.99,,2013-03-05 18:02:00,
2013-03-05 13:11:00,-999.0,-99.9,30.11,ESE,119,11.0,12.0,-999,-99.99,,,-99.99,,2013-03-05 18:11:00,
2013-03-05 13:22:00,-999.0,-99.9,30.11,ESE,118,10.0,13.0,-999,-99.99,,,-99.99,,2013-03-05 18:22:00,
2013-03-05 13:32:00,-999.0,-99.9,30.11,ESE,120,9.0,12.0,-999,-99.99,,,-99.99,,2013-03-05 18:32:00,
2013-03-05 13:42:00,-999.0,-99.9,30.11,ESE,121,11.0,13.0,-999,-99.99,,,-99.99,,2013-03-05 18:42:00,
2013-03-05 13:53:00,24.0,-99.9,30.10,SE,132,8.0,13.0,-999,-99.99,,,-99.99,,2013-03-05 18:53:00,
2013-03-05 14:11:00,24.0,-99.9,30.10,ESE,118,9.0,12.0,-999,-99.99,,,-99.99,,2013-03-05 19:11:00,
2013-03-05 14:22:00,-999.0,-99.9,30.10,ESE,117,9.0,13.0,-999,-99.99,,,-99.99,,2013-03-05 19:22:00,
2013-03-05 14:32:00,-999.0,-99.9,30.09,ESE,114,8.0,10.0,-999,-99.99,,,-99.99,,2013-03-05 19:32:00,
2013-03-05 14:42:00,-999.0,-99.9,30.09,ESE,117,9.0,11.0,-999,-99.99,,,-99.99,,2013-03-05 19:42:00,
2013-03-05 14:52:00,-999.0,-99.9,30.09,ESE,115,7.0,10.0,-999,-99.99,,,-99.99,,2013-03-05 19:52:00,
2013-03-05 15:02:00,-999.0,-99.9,30.09,ESE,110,7.0,9.0,-999,-99.99,,,-99.99,,2013-03-05 20:02:00,
2013-03-05 15:11:00,-999.0,-99.9,30.09,ESE,104,7.0,9.0,-999,-99.99,,,-99.99,,2013-03-05 20:11:00,
2013-03-05 15:22:00,28.0,-99.9,30.09,ESE,108,4.0,11.0,-999,-99.99,,,-99.99,,2013-03-05 20:22:00,
2013-03-05 15:32:00,-999.0,-99.9,30.09,North,7,7.0,8.0,-999,-99.99,,,-99.99,,2013-03-05 20:32:00,
2013-03-05 15:42:00,26.0,-99.9,30.09,North,3,6.0,10.0,-999,-99.99,,,-99.99,,2013-03-05 20:42:00,
2013-03-05 15:52:00,-999.0,-99.9,30.09,NNW,346,10.0,13.0,-999,-99.99,,,-99.99,,2013-03-05 20:52:00,
2013-03-05 16:02:00,-999.0,-99.9,30.09,NNW,342,11.0,12.0,-999,-99.99,,,-99.99,,2013-03-05 21:02:00,
2013-03-05 16:11:00,-999.0,-99.9,30.09,NNW,335,9.0,11.0,-999,-99.99,,,-99.99,,2013-03-05 21:11:00,
2013-03-05 16:22:00,-999.0,-99.9,30.09,NNW,331,8.0,10.0,-999,-99.99,,,-99.99,,2013-03-05 21:22:00,
2013-03-05 16:32:00,-999.0,-99.9,30.08,NNW,334,7.0,9.0,-999,-99.99,,,-99.99,,2013-03-05 21:32:00,
2013-03-05 16:42:00,-999.0,-99.9,30.08,NNW,332,8.0,10.0,-999,-99.99,,,-99.99,,2013-03-05 21:42:00,
2013-03-05 16:52:00,23.0,-99.9,30.08,NNW,334,9.0,10.0,-999,-99.99,,,-99.99,,2013-03-05 21:52:00,
2013-03-05 17:01:00,-999.0,-99.9,30.08,NNW,337,9.0,10.0,-999,-99.99,,,-99.99,,2013-03-05 22:01:00,
2013-03-05 17:12:00,24.0,-99.9,30.08,NNW,338,10.0,11.0,-999,-99.99,,,-99.99,,2013-03-05 22:12:00,
2013-03-05 17:22:00,-999.0,-99.9,30.08,NNW,343,13.0,14.0,-999,-99.99,,,-99.99,,2013-03-05 22:22:00,
2013-03-05 17:32:00,-999.0,-99.9,30.08,NNW,337,12.0,13.0,-999,-99.99,,,-99.99,,2013-03-05 22:32:00,
2013-03-05 17:42:00,-999.0,-99.9,30.08,NW,319,11.0,12.0,-999,-99.99,,,-99.99,,2013-03-05 22:42:00,
2013-03-05 17:52:00,-999.0,-99.9,30.08,NW,322,10.0,12.0,-999,-99.99,,,-99.99,,2013-03-05 22:52:00,
2013-03-05 18:01:00,-999.0,-99.9,30.08,NW,318,10.0,11.0,-999,-99.99,,,-99.99,,2013-03-05 23:01:00,
2013-03-05 18:11:00,-999.0,-99.9,30.08,NW,312,10.0,11.0,-999,-99.99,,,-99.99,,2013-03-05 23:11:00,
2013-03-05 18:22:00,24.0,-99.9,30.08,NW,306,9.0,11.0,-999,-99.99,,,-99.99,,2013-03-05 23:22:00,
2013-03-05 18:32:00,-999.0,-99.9,30.08,WNW,296,6.0,9.0,-999,-99.99,,,-99.99,,2013-03-05 23:32:00,
2013-03-05 18:42:00,24.0,-99.9,30.08,WNW,297,6.0,8.0,-999,-99.99,,,-99.99,,2013-03-05 23:42:00,
2013-03-05 18:53:00,-999.0,-99.9,30.08,WNW,289,7.0,9.0,-999,-99.99,,,-99.99,,2013-03-05 23:53:00,
2013-03-05 19:02:00,-999.0,-99.9,30.08,WNW,292,8.0,8.0,-999,-99.99,,,-99.99,,2013-03-06 00:02:00,
2013-03-05 19:11:00,23.0,-99.9,30.08,WNW,286,6.0,8.0,-999,-99.99,,,-99.99,,2013-03-06 00:11:00,
2013-03-05 19:22:00,-999.0,-99.9,30.09,West,281,8.0,8.0,-999,-99.99,,,-99.99,,2013-03-06 00:22:00,
2013-03-05 19:32:00,-999.0,-99.9,30.09,West,281,7.0,10.0,-999,-99.99,,,-99.99,,2013-03-06 00:32:00,
2013-03-05 19:42:00,-999.0,-99.9,30.09,WNW,282,7.0,10.0,-999,-99.99,,,-99.99,,2013-03-06 00:42:00,
2013-03-05 19:52:00,24.0,-99.9,30.09,West,279,8.0,9.0,-999,-99.99,,,-99.99,,2013-03-06 00:52:00,
2013-03-05 20:02:00,-999.0,-99.9,30.09,West,280,8.0,9.0,-999,-99.99,,,-99.99,,2013-03-06 01:02:00,
2013-03-05 20:11:00,24.0,-99.9,30.09,West,279,8.0,10.0,-999,-99.99,,,-99.99,,2013-03-06 01:11:00,
2013-03-05 20:22:00,-999.0,-99.9,30.08,West,278,7.0,9.0,-999,-99.99,,,-99.99,,2013-03-06 01:22:00,
2013-03-05 20:32:00,-999.0,-99.9,30.08,West,280,6.0,8.0,-999,-99.99,,,-99.99,,2013-03-06 01:32:00,
2013-03-05 20:42:00,25.0,-99.9,30.08,West,276,7.0,8.0,-999,-99.99,,,-99.99,,2013-03-06 01:42:00,
2013-03-05 20:52:00,-999.0,-99.9,30.08,WNW,292,5.0,9.0,-999,-99.99,,,-99.99,,2013-03-06 01:52:00,
2013-03-05 21:01:00,-999.0,-99.9,30.08,WNW,288,5.0,7.0,-999,-99.99,,,-99.99,,2013-03-06 02:01:00,
2013-03-05 21:11:00,-999.0,-99.9,30.08,WNW,282,5.0,8.0,-999,-99.99,,,-99.99,,2013-03-06 02:11:00,
2013-03-05 21:22:00,25.0,-99.9,30.08,WNW,284,6.0,7.0,-999,-99.99,,,-99.99,,2013-03-06 02:22:00,
2013-03-05 21:32:00,-999.0,-99.9,30.09,WNW,288,5.0,7.0,-999,-99.99,,,-99.99,,2013-03-06 02:32:00,
2013-03-05 21:42:00,26.0,-99.9,30.09,West,279,6.0,8.0,-999,-99.99,,,-99.99,,2013-03-06 02:42:00,
2013-03-05 21:52:00,-999.0,-99.9,30.09,WNW,285,6.0,7.0,-999,-99.99,,,-99.99,,2013-03-06 02:52:00,
2013-03-05 22:02:00,-999.0,-99.9,30.09,WNW,287,5.0,6.0,-999,-99.99,,,-99.99,,2013-03-06 03:02:00,
2013-03-05 22:12:00,26.0,-99.9,30.09,West,280,6.0,7.0,-999,-99.99,,,-99.99,,2013-03-06 03:12:00,
2013-03-05 22:22:00,-999.0,-99.9,30.10,West,271,5.0,8.0,-999,-99.99,,,-99.99,,2013-03-06 03:22:00,
2013-03-05 22:32:00,-999.0,-99.9,30.10,West,278,6.0,8.0,-999,-99.99,,,-99.99,,2013-03-06 03:32:00,
2013-03-05 22:42:00,-999.0,-99.9,30.10,WSW,246,2.0,6.0,-999,-99.99,,,-99.99,,2013-03-06 03:42:00,
2013-03-05 22:53:00,-999.0,-99.9,30.10,West,278,3.0,4.0,-999,-99.99,,,-99.99,,2013-03-06 03:53:00,
2013-03-05 23:02:00,-999.0,-99.9,30.11,SW,221,2.0,4.0,-999,-99.99,,,-99.99,,2013-03-06 04:02:00,
2013-03-05 23:11:00,-999.0,-99.9,30.11,South,186,1.0,2.0,-999,-99.99,,,-99.99,,2013-03-06 04:11:00,
2013-03-05 23:22:00,28.0,-99.9,30.12,East,101,4.0,5.0,-999,-99.99,,,-99.99,,2013-03-06 04:22:00,
2013-03-05 23:32:00,-999.0,-99.9,30.12,East,84,13.0,16.0,-999,-99.99,,,-99.99,,2013-03-06 04:32:00,
2013-03-05 23:42:00,29.0,-99.9,30.12,East,81,14.0,17.0,-999,-99.99,,,-99.99,,2013-03-06 04:42:00,
2013-03-05 23:52:00,-999.0,-99.9,30.13,ENE,75,12.0,13.0,-999,-99.99,,,-99.99,,2013-03-06 04:52:00,